World > North America > United States > South Carolina > Anderson   City of Anderson, South Carolina

Anderson, SC Hourly Weather Updates

Feedback E-mail the Weather

Quick WX

Anderson, SC Weather Maps

°F °C°F °C
Anderson Weather Map
UTC Time: 3/5/2024, 11:19
Your Time:

Anderson, SC Regional Weather

Expires:202403051200;;439294
ASUS42 KCAE 051110
RWRCAE
REGIONAL WEATHER ROUNDUP
NATIONAL WEATHER SERVICE COLUMBIA SC
600 AM EST TUE MAR 05 2024

NOTE: "FAIR" INDICATES FEW OR NO CLOUDS BELOW 12,000 FEET WITH NO
SIGNIFICANT WEATHER AND/OR OBSTRUCTIONS TO VISIBILITY.

NOT ALL STATIONS ARE QUALITY CONTROLLED BY THE NATIONAL 
WEATHER SERVICE. USE DATA WITH CAUTION...ESPECIALLY 
DEWPOINT OBSERVATIONS.


SCZ001>059-115-116-135>137-GAZ040-063>065-077-051200-
...UPSTATE SOUTH CAROLINA...
  
CITY           SKY/WX    TMP DP  RH WIND       PRES   REMARKS
ANDERSON       MOCLDY    53  50  89 NE3       30.10S                  
LIBERTY        CLEAR     49  49 100 CALM      30.10S                  
SPARTANBURG    CLEAR     46  45  93 CALM      30.11R                  
CLEMSON        CLEAR     55  52  89 NE3       30.10F                  
GREENVILLE     CLEAR     54  49  83 CALM      30.11F                  
GREENWOOD      PTCLDY    44  44 100 CALM      30.12R FOG              
GREER          CLEAR     51  46  83 CALM      30.12R                  
ROCK HILL      CLEAR     43  43 100 CALM      30.11S FOG              
LAURENS        CLEAR     43  43 100 N5        30.11S                  


...CENTRAL SOUTH CAROLINA...
  
CITY           SKY/WX    TMP DP  RH WIND       PRES   REMARKS
COLUMBIA APT   PTCLDY    47  46  97 CALM      30.09R                  
COLUMBIA OWENS PTCLDY    47  45  93 NE3       30.10R                  
MCENTIRE ANGB  PTCLDY    44  43  95 N3        30.08R FOG              
ORANGEBURG     CLEAR     49  47  93 CALM      30.09R                  
SUMTER SHAW    CLEAR     49  46  91 CALM      30.10R                  
AIKEN          PTCLDY    47  46  97 CALM      30.11S                  
BARNWELL       PTCLDY    46  46 100 CALM      30.10S                  
MANNING        CLEAR     45  45 100 CALM      30.11R                  
CAMDEN         PTCLDY    46  46 100 CALM      30.11R                  
LANCASTER        N/A     45  45 100 CALM      30.11S FOG              
WINNSBORO      CLEAR     50  48  93 NE5       30.11R                  


...EASTERN AND COASTAL SOUTH CAROLINA...
  
CITY           SKY/WX    TMP DP  RH WIND       PRES   REMARKS
MYRTLE BEACH   CLEAR     52  32  46 CALM      30.12R                  
N MYRTLE BCH   PTCLDY    50  48  93 NE5       30.11S FOG              
CONWAY         CLEAR     46  46 100 CALM      30.12S                  
MARION         PTCLDY    48  48 100 CALM      30.12S                  
HARTSVILLE     MOCLDY    46  46 100 NE3       30.10F                  
FLORENCE       PTCLDY    48  47  96 CALM      30.11F                  
DARLINGTON     PTCLDY    46  46 100 CALM      30.12F                  
CHARLESTON APT PTCLDY    54  52  93 N3        30.10R FOG              
MOUNT PLEASANT CLEAR     54  54 100 CALM      30.10S                  
WALTERBORO     PTCLDY    46  46 100 CALM      30.11S                  
BEAUFORT       PTCLDY    55  53  93 CALM      30.09R FOG              


...EASTERN GEORGIA...
  
CITY           SKY/WX    TMP DP  RH WIND       PRES   REMARKS
AUGUSTA BUSH F PTCLDY    46  45  96 CALM      30.08R FOG              
AUGUSTA DANIEL CLEAR     54  50  86 E5        30.09S                  
THOMSON        CLEAR     48  47  97 CALM      30.08F                  
WASHINGTON     PTCLDY    52  52  99 E5        30.09S                  
CLAXTON        FOG       51  50  95 CALM      30.08S VSB 1/4          
SYLVANIA       FOG       48  47  99 CALM      30.10R VSB 1            
STATESBORO     FOG       50  49  96 CALM      30.09R VSB 1/4          
SAVANNAH       FOG       54  53  97 N3        30.08R VSB 1/8          


...SOUTHERN NORTH CAROLINA...
  
CITY           SKY/WX    TMP DP  RH WIND       PRES   REMARKS
CHARLOTTE      PTCLDY    48  46  93 N5        30.11F                  
MONROE         CLEAR     48  47  96 CALM      30.12S                  
WADESBORO      PTCLDY    42  41  96 CALM      30.12F                  
ROCKINGHAM     PTCLDY    46  46  97 CALM      30.13S                  
RUTHERFORDTON  MOCLDY    50  48  93 CALM      30.12F                  
ASHEVILLE      MOCLDY    52  47  83 CALM      30.12F                  

$$
  

SKY/WX - Weather  TMP - Temperature  DP - Dew Point  RH - Humidity
WIND - Wind Direction/Speed PRES - Barometric Pressure VSB - Visibility
WCI - Wind Chill Index E13G22 Wind - East Wind 13 mph/Gusts of 22 mph

Trending Headlines

Trending Entertainment Headlines

Anderson Radar Loop

Use the map search tool if you want to place a location marker on the radar map...

Anderson Quick Facts

National Two Day Weather Forecast


E-mail the Anderson Weather Forecast

Voice your opinion or tell us about page issues...